Theta_e
292 295 294 295 294 294 294 294 294 294 296 297 299 296 298 301 292 291 299 302 300 299 303 305 305 308 311 309 311 313 318 320 321 321 319 320 321 324 325 325 326 326 328 329 331 332 331 331 330 331 331 332 333 334 335 335 334 331 331 330 329 328 327 326 326 326 326 325 323 322 321 320 320 321 320 320 320 318 317 317 317 315 315 313 311 310 310
292 293 294 295 294 294 294 294 295 296 296 296 298 298 299 299 300 301 301 302 302 304 309 311 313 315 318 314 316 319 317 317 317 318 319 320 321 324 325 325 327 328 329 330 331 332 331 331 330 330 331 331 332 333 334 334 332 331 331 330 329 327 326 326 326 326 325 323 321 320 320 320 320 320 320 320 319 318 317 316 316 315 314 312 310 310 309
291 292 293 294 294 293 292 294 295 295 296 296 297 299 301 301 300 301 302 301 301 307 312 313 316 319 312 315 313 317 319 317 317 316 317 319 320 324 326 327 328 329 329 331 331 331 331 331 330 330 331 332 333 334 333 332 331 330 330 329 328 327 326 326 326 324 323 321 320 319 319 319 319 319 319 320 319 317 316 316 315 315 313 310 310 309 309
288 292 292 292 294 294 293 292 294 294 294 294 297 296 302 299 297 300 301 299 300 306 312 314 314 317 314 312 314 316 318 320 320 318 316 319 321 323 325 327 328 328 328 330 330 330 331 331 331 330 331 332 332 332 331 330 330 330 329 328 328 327 327 326 325 323 322 320 319 319 319 318 318 318 318 318 317 317 316 316 315 314 313 311 311 310 310
286 292 293 292 292 292 289 290 294 295 296 296 298 299 303 303 302 297 292 299 305 310 312 312 314 316 315 313 313 315 315 315 315 316 318 317 320 321 325 327 327 328 329 330 331 331 331 330 330 331 332 331 330 331 330 329 330 329 328 328 327 327 326 325 324 324 323 320 319 319 318 318 317 318 317 317 317 316 315 316 315 313 311 311 310 311 310
287 292 293 293 289 282 284 297 300 298 296 297 296 298 302 303 304 301 304 305 308 309 309 310 313 315 316 316 318 318 316 316 316 317 318 318 319 322 327 328 328 329 330 331 331 331 331 331 331 332 332 331 332 332 330 329 329 329 328 327 327 326 325 324 323 323 322 321 319 318 318 317 317 317 317 316 316 316 315 315 314 313 312 311 311 311 310
287 291 292 286 281 283 296 300 300 300 300 298 297 299 300 301 303 304 303 305 306 309 311 311 314 317 319 322 321 319 318 320 319 320 321 321 322 325 327 327 328 329 331 331 330 329 330 331 331 331 331 331 332 331 330 329 329 329 328 327 327 326 325 324 323 322 321 320 319 318 317 316 316 316 316 316 316 316 314 313 313 312 311 310 310 310 310
291 287 286 280 282 295 299 300 302 303 301 300 300 298 300 302 303 303 303 304 306 310 310 313 315 319 318 324 323 325 324 322 323 323 323 325 325 325 327 328 330 331 331 330 329 329 330 331 331 331 330 331 331 329 329 328 329 328 328 326 326 325 324 324 323 322 321 320 319 317 316 316 316 315 316 317 316 316 314 314 313 313 312 311 310 310 310
286 287 286 286 295 294 296 297 298 298 296 297 296 290 296 303 303 304 302 304 305 309 311 314 316 317 317 318 320 325 324 326 325 326 326 327 328 329 330 331 332 332 331 330 330 329 330 330 329 330 330 330 329 328 327 327 327 328 327 325 324 324 323 323 322 321 320 318 316 316 315 315 315 315 316 316 316 315 313 313 312 312 311 310 310 310 310
291 287 285 286 287 284 290 299 302 306 307 305 305 298 295 305 304 305 305 305 306 309 311 314 316 316 314 311 315 323 324 327 328 326 327 331 331 332 333 333 332 331 330 330 329 329 329 328 329 329 329 328 327 325 324 325 325 324 324 324 324 323 323 322 321 320 319 316 315 314 315 314 315 316 316 316 316 314 313 313 311 311 311 310 310 310 309
289 288 286 285 284 286 296 299 301 305 306 305 309 297 291 302 305 305 306 305 307 309 312 311 316 313 309 309 312 318 324 325 328 327 328 331 331 332 332 331 330 330 330 329 328 328 328 327 328 329 329 328 326 323 323 323 324 321 320 321 322 323 322 322 321 319 318 316 315 315 314 315 316 316 316 315 315 315 314 313 312 311 310 309 309 309 309
290 288 286 285 289 288 297 301 303 302 304 307 301 286 288 303 306 307 308 307 307 311 313 317 316 311 305 309 315 322 324 326 328 327 328 329 330 331 331 331 331 330 328 327 327 327 327 327 328 328 328 327 324 323 323 323 322 320 320 321 322 321 321 321 320 318 318 317 316 315 315 316 316 316 316 315 314 313 313 313 311 311 309 308 307 307 303
290 288 289 290 292 298 306 303 305 304 310 304 290 285 291 311 308 309 310 308 311 315 314 316 312 316 319 318 323 327 326 326 327 328 331 331 331 330 330 329 321 327 327 327 327 327 328 327 328 328 328 326 324 323 323 322 321 320 321 321 320 320 319 319 319 318 318 317 317 317 317 316 316 315 315 313 312 312 312 312 311 311 310 308 306 303 303
288 290 290 289 292 303 308 309 305 308 302 290 289 303 313 315 310 311 310 311 313 316 316 317 317 320 321 324 325 325 326 327 327 327 329 331 331 331 329 324 326 328 327 327 327 327 327 327 327 327 327 325 324 324 323 322 322 323 321 320 318 317 316 317 317 317 317 318 318 318 318 317 315 314 315 314 312 310 308 307 306 305 305 305 305 304 303
293 290 289 286 284 295 308 309 304 306 294 295 308 313 315 315 313 312 313 316 318 320 319 320 321 321 322 324 324 325 325 326 326 327 327 328 329 327 326 326 326 326 326 326 326 326 326 326 327 327 327 324 324 323 323 324 325 324 322 320 318 317 316 316 315 316 317 316 316 317 317 315 313 311 310 309 309 309 308 306 305 304 304 304 303 303 303
289 289 286 288 298 303 309 307 296 305 310 313 315 315 312 314 315 315 315 316 319 320 320 318 321 323 323 324 325 325 325 327 328 329 329 329 329 328 328 327 326 326 326 326 325 325 325 326 326 326 325 323 322 322 323 325 323 319 316 317 318 317 316 315 315 315 315 315 316 316 315 313 312 309 309 309 308 308 307 305 304 303 303 303 303 302 301
295 292 296 304 306 312 312 313 312 314 314 317 316 316 315 316 315 320 317 317 320 321 321 321 322 321 323 324 325 325 325 322 321 322 328 328 328 327 327 327 326 326 326 325 326 325 326 326 326 326 326 323 321 322 324 324 320 317 316 315 315 314 314 314 314 314 314 314 314 315 315 313 311 309 309 308 307 307 307 305 304 303 303 303 302 301 301
305 306 306 307 308 311 312 314 314 312 314 317 319 317 315 317 319 318 319 321 320 321 321 319 320 321 322 320 318 318 320 319 318 316 322 327 328 328 327 326 326 326 326 326 325 324 324 326 325 325 325 324 320 323 324 323 322 317 316 314 314 313 313 313 313 314 313 313 313 314 314 312 311 311 309 308 307 306 306 305 305 304 302 301 301 301 301
298 291 304 302 305 309 310 311 313 315 317 316 317 316 317 318 319 318 318 321 321 321 321 320 319 319 318 318 318 318 319 319 320 319 320 324 326 326 325 326 324 326 325 324 324 323 323 325 325 326 326 324 324 325 323 322 322 319 316 315 313 313 312 313 313 313 312 311 311 311 311 311 311 311 311 310 308 305 305 304 303 302 302 301 300 300 300
297 294 302 305 308 308 309 312 311 312 313 315 317 317 318 319 321 321 320 321 319 321 321 321 321 319 320 318 317 318 318 317 320 320 317 321 325 327 327 327 327 326 326 325 324 324 323 325 326 325 324 323 325 325 322 320 319 319 315 314 314 313 312 312 311 311 310 301 306 309 308 308 308 308 307 307 305 303 303 302 302 302 302 301 300 300 300
301 303 304 306 308 308 310 311 312 313 314 314 315 315 316 318 317 318 320 319 317 318 320 322 321 319 320 321 319 317 318 319 319 320 319 322 326 326 326 327 325 326 325 324 324 324 324 326 326 326 325 325 326 326 324 322 321 318 315 311 312 310 309 310 309 309 308 308 308 307 307 307 307 307 306 306 305 305 306 305 305 304 303 303 302 302 302
292 296 301 306 296 294 306 309 311 313 315 315 315 315 315 315 314 316 317 318 320 318 319 320 319 318 319 321 322 320 319 320 320 319 319 320 325 326 327 327 327 326 325 325 324 323 324 325 325 325 325 325 325 323 323 322 319 317 314 313 311 309 309 308 308 308 307 307 308 307 307 306 306 302 290 293 300 306 306 299 297 299 300 306 307 305 304
293 303 306 307 307 308 309 309 312 313 314 315 313 313 314 316 317 315 315 315 315 315 317 318 317 317 317 319 320 321 321 321 321 322 323 325 326 325 326 327 327 326 325 324 325 323 324 324 324 324 324 324 325 324 322 321 319 316 315 312 310 310 309 308 306 307 307 307 308 308 307 307 306 303 302 299 290 290 295 292 291 289 289 289 291 294 307
306 309 309 311 307 304 308 310 312 313 314 313 313 313 314 315 315 317 317 315 315 317 317 317 318 318 319 319 321 321 322 324 325 325 326 327 326 325 325 326 325 325 325 325 323 321 324 323 324 324 322 323 324 323 322 320 319 317 315 313 311 310 309 308 305 306 307 307 307 307 306 307 305 303 301 299 296 291 290 290 290 290 290 290 291 292 295
305 310 311 311 311 310 312 313 313 315 316 314 313 313 313 313 315 317 317 317 318 317 318 318 320 322 322 322 322 321 321 322 322 322 321 321 322 324 325 325 324 324 325 326 325 324 323 323 323 322 322 322 323 322 320 318 316 316 316 314 311 310 310 307 306 305 305 306 306 306 306 305 305 303 301 300 298 295 293 290 289 290 290 291 291 292 292
311 311 313 313 312 311 313 312 314 314 313 315 314 314 315 315 315 316 317 318 318 319 319 320 320 321 321 320 320 320 320 320 316 319 323 323 323 323 324 325 324 325 326 326 326 324 323 322 323 322 320 320 321 320 319 318 315 314 313 311 311 310 308 307 307 306 306 306 305 305 306 306 306 304 303 302 300 297 295 294 294 292 290 290 290 290 290
311 312 311 309 310 309 312 310 311 313 314 315 316 315 316 316 315 317 318 318 319 320 319 318 318 319 318 318 316 318 318 319 320 320 321 321 320 321 324 325 325 324 324 325 324 321 317 320 320 320 320 320 321 320 319 317 315 314 313 312 311 302 295 300 308 306 307 306 306 306 306 306 306 304 304 303 301 298 298 296 296 296 295 294 291 291 291
313 312 311 306 305 309 312 312 312 314 313 313 315 313 314 314 315 316 315 316 316 317 318 318 319 319 318 318 318 317 318 318 317 318 319 319 320 322 323 323 324 322 322 321 320 320 320 321 320 319 319 320 320 319 318 317 316 315 314 313 312 308 306 305 307 307 307 307 307 308 307 307 308 306 304 302 300 300 299 298 298 298 297 294 291 289 289
312 311 313 312 311 313 314 315 313 313 313 314 314 314 315 313 313 313 314 315 316 316 315 316 317 317 316 316 317 316 316 316 316 316 316 318 319 320 321 321 320 318 318 318 319 319 319 320 320 319 319 320 320 319 319 318 317 317 315 315 311 308 308 308 308 308 308 308 308 308 302 305 305 306 304 302 300 301 301 299 298 298 297 292 292 292 291
311 312 311 312 312 312 312 312 309 312 313 314 310 312 312 312 311 313 314 315 315 315 315 315 315 315 316 315 315 315 315 315 315 316 316 317 318 319 319 318 318 317 317 318 317 317 317 317 318 318 318 320 320 319 319 318 317 317 316 315 310 309 309 310 309 309 308 308 306 299 303 306 306 306 303 302 302 300 299 299 298 298 297 293 292 292 291
311 311 312 312 310 312 310 311 313 311 311 312 313 312 311 312 312 312 312 313 314 314 315 314 314 314 314 315 315 316 316 317 316 316 316 317 317 319 318 318 315 312 314 315 316 317 316 317 318 318 319 319 318 318 318 317 316 316 316 315 311 300 296 298 301 308 308 305 304 305 305 306 306 302 299 300 301 299 299 298 296 296 294 295 294 293 293
308 309 310 310 309 308 310 309 309 310 312 313 312 309 312 311 311 311 312 312 313 314 314 314 313 314 314 315 316 315 315 315 316 316 316 317 317 318 318 318 317 311 315 315 314 314 316 317 317 317 319 319 318 317 317 316 315 314 313 305 307 305 299 296 303 304 304 302 305 305 302 304 305 303 300 298 298 297 298 297 296 295 295 294 294 294 295
306 305 305 307 307 308 308 308 307 308 309 311 313 315 314 314 314 313 313 313 313 314 314 313 314 314 316 316 315 315 315 314 315 316 315 315 317 318 319 319 317 316 315 315 316 317 315 316 317 318 318 318 318 318 316 316 315 314 314 311 308 306 298 299 302 306 304 303 305 305 304 304 304 302 301 300 299 297 299 297 296 296 297 296 296 297 296
307 305 307 308 308 307 307 308 310 309 309 310 312 313 313 314 314 313 314 313 313 313 312 313 314 314 314 315 315 314 315 314 312 312 314 314 315 316 317 317 317 316 315 315 315 314 314 314 314 318 318 317 317 317 316 316 316 315 315 310 308 305 305 305 307 306 305 302 303 300 302 303 304 303 300 300 300 300 297 296 295 296 298 298 298 298 293
310 309 310 310 311 311 311 311 312 310 308 309 311 311 313 314 314 314 313 314 313 314 315 314 313 313 313 314 314 314 314 314 313 313 313 313 314 315 317 316 316 316 315 314 314 314 313 312 312 312 315 316 315 315 316 316 316 314 314 310 308 307 307 307 307 306 304 304 304 304 303 303 303 298 299 301 303 301 300 298 298 297 297 297 298 297 293
308 308 308 308 309 309 310 310 311 312 312 311 311 310 310 310 313 313 314 314 315 315 314 314 313 313 312 312 312 313 313 313 313 313 313 313 314 316 315 314 313 313 313 313 314 314 313 311 298 299 310 311 312 311 307 306 306 306 307 308 305 306 307 304 305 304 305 304 303 303 303 300 300 299 302 302 302 302 301 300 299 299 299 300 299 297 294
307 307 307 307 308 308 308 308 309 310 310 310 311 311 311 311 313 313 315 313 313 313 313 313 313 312 312 311 311 311 312 313 313 314 314 315 315 314 314 313 313 312 312 311 312 313 311 310 296 295 306 309 309 307 301 294 305 305 304 305 304 304 303 303 303 303 302 301 301 300 296 297 301 302 299 303 302 301 300 300 297 298 299 298 298 296 294
305 305 306 306 306 307 307 308 308 308 309 309 309 308 308 310 311 312 312 312 312 313 313 313 313 312 312 312 311 310 311 311 312 313 313 313 314 312 311 310 310 312 310 311 312 311 310 302 290 302 311 310 309 305 298 292 295 304 303 303 302 302 301 301 300 300 300 301 297 299 299 300 300 301 301 302 302 301 299 300 299 298 297 297 297 296 295
304 306 306 306 305 306 306 307 308 307 307 307 308 308 309 309 310 312 311 311 312 311 312 312 312 311 311 309 309 310 310 311 311 311 312 312 312 310 308 310 309 309 308 310 310 309 307 303 309 311 308 308 306 305 296 292 295 303 302 302 302 301 300 300 300 299 299 300 299 300 300 300 301 300 301 301 301 298 296 300 298 296 298 297 297 296 297
304 304 304 304 304 304 305 306 306 306 307 307 307 307 308 307 309 309 310 310 311 310 310 310 310 309 308 308 308 309 310 310 311 310 311 312 311 309 308 308 309 310 309 301 309 309 304 298 307 309 308 308 307 306 303 300 299 303 304 303 301 300 300 299 300 300 300 300 299 295 300 300 300 299 297 298 299 298 298 297 297 297 297 296 297 296 296
304 304 304 303 304 304 304 304 304 305 306 307 307 307 307 307 308 308 308 308 310 310 310 310 309 308 309 309 309 309 310 309 310 310 310 310 309 309 306 305 308 309 309 309 309 306 303 304 310 308 307 307 306 301 303 298 304 305 304 303 302 301 300 300 299 299 298 298 299 299 299 298 297 297 296 298 297 297 296 296 296 297 297 297 297 296 295
304 304 304 303 303 304 304 304 304 305 305 307 306 306 307 308 307 306 308 308 308 308 308 309 301 307 308 309 309 309 310 310 309 309 310 308 307 307 306 305 308 305 298 301 302 303 308 309 307 302 306 305 302 296 296 303 304 303 302 301 301 299 299 299 298 299 299 298 298 299 298 298 297 296 296 296 296 296 295 296 297 297 297 296 296 296 296
304 303 303 303 303 303 303 303 304 304 305 306 306 306 307 307 307 307 307 307 307 307 307 308 307 305 306 307 308 308 308 309 309 309 309 309 309 309 307 305 306 304 294 304 306 308 308 306 303 302 297 299 300 291 291 303 305 304 303 301 300 300 299 299 299 298 298 298 298 298 298 297 296 295 295 295 295 295 295 295 295 295 295 296 297 296 296
304 304 303 303 303 304 304 304 304 304 304 305 306 307 307 307 307 307 306 306 307 306 306 306 307 307 307 307 307 306 307 308 308 309 308 307 307 306 307 306 305 300 293 303 306 307 305 303 301 295 290 291 291 290 300 304 304 303 302 301 300 300 299 299 299 299 299 298 297 297 297 294 295 296 296 295 295 295 294 295 295 296 296 296 297 297 297
305 304 304 303 303 303 304 303 303 303 304 305 305 305 306 306 306 306 306 306 305 305 304 305 306 307 308 307 307 307 308 308 308 308 306 304 304 303 303 298 303 302 301 294 302 304 303 302 294 290 291 291 291 290 305 304 303 301 301 300 301 300 300 299 299 299 298 299 298 297 296 297 297 297 297 295 293 295 295 295 296 297 296 297 297 297 298
305 305 305 299 302 302 304 304 305 305 304 304 305 305 304 306 306 306 306 306 305 306 307 306 306 306 307 307 307 308 308 307 308 307 305 305 304 305 304 299 303 298 293 294 304 302 299 289 289 290 290 290 290 294 302 303 301 302 301 301 301 299 300 300 299 299 299 298 297 297 298 297 297 297 297 296 296 297 296 294 295 298 298 299 298 298 298
304 304 304 304 304 305 305 305 304 303 303 302 302 303 304 305 305 306 306 306 306 306 306 307 307 307 308 307 307 306 305 305 307 307 305 304 302 299 295 292 291 291 299 303 301 300 297 293 290 289 289 289 289 299 304 304 303 303 303 302 301 301 300 300 299 299 299 299 298 297 295 296 298 298 298 296 297 298 298 297 298 298 298 297 297 296 296
303 303 303 303 304 305 305 304 303 301 301 301 302 302 304 305 305 306 306 305 305 306 306 306 306 306 307 307 306 308 308 306 302 304 307 305 305 304 304 303 297 290 291 291 292 291 289 290 289 288 288 289 293 299 303 303 303 302 301 300 300 300 300 300 300 299 299 298 298 299 298 299 299 299 298 299 299 299 298 298 298 298 298 298 298 298 299
303 303 304 303 304 303 303 303 302 300 302 303 301 302 304 304 305 304 305 305 305 305 305 305 306 306 306 305 306 307 307 306 307 303 305 305 305 303 300 295 290 292 297 300 300 298 290 288 288 288 287 288 298 301 303 303 302 300 301 301 301 301 301 301 301 300 300 300 300 299 300 299 300 300 299 299 299 299 298 299 301 300 298 299 298 297 297
303 303 303 302 303 303 302 301 301 302 303 303 302 303 304 304 302 303 303 304 305 303 305 305 305 305 306 305 306 307 307 305 307 307 306 306 305 304 302 302 302 295 295 301 300 297 288 286 288 289 292 298 301 302 303 305 303 302 303 302 302 302 301 298 295 295 299 299 300 300 299 299 300 298 297 298 299 300 299 298 297 293 291 293 295 295 295
302 302 302 302 303 304 303 303 303 303 303 303 304 303 303 301 303 302 303 304 304 303 304 304 305 305 305 305 306 307 308 307 304 300 304 304 304 300 299 299 299 298 298 298 298 299 298 299 300 296 296 299 304 303 302 303 302 301 301 302 302 299 299 298 299 300 300 300 300 300 300 299 300 300 299 298 297 298 298 298 297 297 297 296 295 294 296
303 303 303 304 303 304 304 303 304 304 303 303 304 303 302 302 302 302 303 298 304 304 304 303 302 304 306 305 304 305 307 306 304 303 300 301 303 303 299 295 300 298 300 300 300 301 300 300 297 295 294 301 302 302 296 296 301 301 301 298 298 300 298 300 299 300 302 300 301 301 298 299 300 300 299 300 299 298 297 298 297 296 295 296 295 293 294
Wind_Speed
10 14 18 19 18 17 15 14 14 15 17 12 5 6 10 3 3 5 11 7 7 10 10 11 11 8 8 13 15 13 12 16 15 16 17 17 18 19 18 17 19 18 18 17 18 18 17 18 17 15 14 14 13 12 12 11 12 14 13 13 13 13 12 11 11 12 10 10 9 11 12 11 10 9 9 8 8 8 8 8 7 7 7 7 8 7 7
10 13 17 20 20 18 15 15 16 16 16 13 10 8 8 2 9 9 9 10 8 7 10 9 6 4 3 7 8 10 18 18 17 16 15 16 17 20 20 19 19 19 19 17 18 18 18 19 19 16 15 15 13 13 12 12 13 13 13 13 14 13 12 11 11 11 11 10 10 11 12 11 10 9 9 8 8 9 9 8 7 7 7 7 7 7 8
8 11 13 15 20 16 15 14 14 15 15 16 14 3 9 12 7 12 8 9 6 6 9 9 7 10 5 6 11 14 14 16 16 15 15 14 15 19 18 18 18 18 19 18 19 19 20 21 20 16 14 12 12 12 12 12 14 14 15 14 14 13 12 11 11 11 11 12 11 12 12 10 9 9 9 8 8 8 8 8 7 7 7 7 7 8 8
5 9 10 15 18 18 13 12 16 16 13 9 8 6 4 7 4 9 11 5 6 5 5 3 8 6 4 13 10 11 13 15 15 15 16 15 13 17 18 18 18 18 19 19 20 18 19 17 18 16 14 13 12 13 13 14 15 14 13 13 14 12 11 12 13 13 12 12 11 11 11 11 10 8 8 8 8 8 7 8 6 6 6 6 6 7 7
4 7 11 14 15 15 12 10 13 16 13 13 8 9 7 5 5 4 3 5 7 7 5 1 2 2 7 6 13 11 12 13 15 14 16 16 16 17 18 17 19 19 19 19 18 17 16 15 16 16 16 14 13 14 14 13 12 12 12 11 12 12 12 12 12 11 12 12 11 12 11 12 10 8 9 8 8 8 8 7 6 7 6 6 6 6 7
2 9 13 11 8 9 9 8 12 17 14 14 9 4 5 6 5 1 10 6 5 7 7 4 2 1 6 6 6 10 9 9 11 13 14 14 14 14 16 16 16 15 14 14 14 15 15 15 15 13 13 13 11 12 12 12 12 12 12 12 12 12 12 13 12 12 12 12 12 11 11 11 10 10 9 9 8 7 7 7 7 6 5 6 6 6 7
2 2 5 8 9 9 9 11 13 15 13 14 14 10 12 11 7 9 12 11 8 6 4 5 4 4 2 2 8 9 10 9 9 11 12 13 14 15 16 16 15 14 15 15 15 15 15 15 13 13 12 12 12 12 12 12 12 12 12 13 11 13 13 14 14 13 14 13 12 12 12 11 11 10 9 8 9 8 7 7 7 6 6 6 6 6 7
3 2 3 6 8 8 10 11 11 11 12 11 12 9 11 10 7 6 4 12 11 9 4 1 4 4 1 2 2 3 5 10 8 9 9 11 13 16 14 15 14 14 16 17 17 16 13 13 12 12 12 12 12 11 11 11 11 12 12 12 13 12 12 12 13 12 13 12 11 12 12 11 12 11 9 9 9 7 7 7 6 5 4 5 5 6 6
3 3 7 2 3 9 8 9 12 12 11 12 11 4 10 8 10 9 8 4 3 7 5 4 3 5 5 2 3 5 5 6 8 7 11 11 13 13 13 14 14 14 14 14 14 12 13 13 12 12 12 11 11 11 11 9 12 11 11 13 13 13 12 12 12 12 12 12 11 13 12 13 12 11 9 8 8 7 8 7 7 7 5 5 5 5 7
6 6 4 2 1 4 5 6 9 7 8 8 7 7 4 8 13 14 9 5 3 5 5 5 2 3 7 7 2 5 3 7 4 10 9 12 14 14 15 17 16 15 14 13 12 13 14 13 11 11 11 11 11 11 10 10 11 10 9 11 13 12 12 12 12 11 12 12 13 13 12 12 12 10 9 7 7 7 8 7 7 7 6 5 5 5 6
3 5 3 3 4 4 5 9 13 12 8 7 6 6 9 9 13 8 5 6 1 4 7 5 2 3 5 4 4 7 5 4 8 7 12 16 14 16 17 17 18 17 14 14 14 15 14 13 11 12 13 14 12 11 11 10 10 10 9 8 11 12 13 13 12 12 13 12 13 13 13 12 11 11 10 8 6 6 6 5 6 6 6 5 5 4 4
7 4 5 4 0 3 9 8 10 16 11 8 11 9 8 9 9 8 7 6 6 6 7 7 5 4 5 7 8 5 7 5 6 9 12 13 16 17 17 16 17 15 15 16 16 16 14 12 13 14 13 13 12 12 12 10 9 9 9 8 8 5 5 10 12 12 11 12 12 13 13 12 10 10 7 7 8 8 6 5 6 7 7 6 5 4 8
7 3 3 2 1 4 11 6 7 10 4 3 8 10 3 8 1 7 4 8 5 9 5 4 2 2 3 6 10 7 8 11 9 9 13 14 14 17 17 16 15 14 14 14 16 15 12 14 15 14 13 13 13 12 12 11 11 10 9 10 9 9 9 9 10 10 10 11 12 11 10 11 10 8 6 8 8 8 6 4 5 5 7 7 8 9 9
4 1 6 2 2 5 4 11 3 5 7 4 6 3 4 3 4 3 6 5 8 5 5 4 3 3 7 12 11 8 8 10 9 10 15 15 15 15 14 16 15 15 14 14 16 16 15 16 14 12 12 12 12 11 12 12 13 12 12 12 10 10 11 11 10 10 10 10 8 8 9 8 7 8 7 7 7 8 7 7 9 9 9 8 8 7 7
1 5 7 4 3 3 8 9 7 7 4 1 2 2 3 3 1 0 5 10 7 5 5 5 4 8 10 11 11 9 8 9 13 11 15 16 17 17 18 16 14 15 15 15 14 14 14 15 14 13 12 13 12 11 11 10 11 11 12 13 13 11 10 11 9 8 8 10 9 9 10 9 10 9 8 10 9 9 8 8 9 9 8 7 6 5 5
2 6 5 2 2 5 3 6 3 5 5 4 2 3 4 2 2 4 8 10 7 7 8 6 6 9 9 10 10 10 10 10 12 8 10 16 17 18 17 17 16 15 15 15 14 13 12 11 12 12 12 13 11 12 10 9 10 11 9 9 11 12 11 9 9 10 9 9 9 10 10 10 9 9 8 9 8 8 8 8 8 8 7 7 6 6 7
1 2 3 4 9 4 9 4 10 9 9 6 4 5 6 5 7 9 8 10 8 8 7 6 7 6 5 6 6 6 6 9 10 3 11 15 16 17 17 17 15 14 14 14 14 15 14 13 11 10 11 12 13 12 10 9 11 11 10 10 10 10 10 10 10 10 9 9 9 10 10 10 10 9 9 8 8 7 8 8 8 8 7 7 7 7 7
5 6 9 7 8 2 9 3 8 10 9 8 7 9 7 4 7 8 7 5 6 6 5 3 7 9 10 11 12 13 10 8 10 6 8 11 12 12 13 14 14 12 15 14 15 14 13 13 10 9 10 11 13 10 10 11 13 12 12 10 10 10 10 10 12 12 11 10 10 10 10 9 9 8 9 8 7 7 7 7 7 7 8 8 8 7 7
4 2 9 12 12 6 8 8 10 11 10 6 6 8 8 8 10 8 3 1 6 8 9 5 5 12 12 9 9 8 6 5 7 5 8 5 10 12 13 11 11 13 13 14 15 13 12 12 11 11 11 11 10 10 11 11 11 13 12 10 10 9 10 10 10 11 11 9 9 9 9 9 8 7 7 8 7 8 7 8 8 8 8 8 8 8 7
5 3 8 10 4 8 15 11 7 10 12 9 8 9 9 7 8 9 8 6 10 9 8 8 9 9 9 11 9 8 8 2 5 5 3 8 10 9 10 10 12 13 13 13 13 13 11 12 12 11 11 11 10 12 13 13 12 12 11 10 10 9 10 9 9 10 10 11 12 9 9 8 8 8 7 8 9 9 9 9 9 9 9 8 9 8 7
2 5 7 9 5 13 10 8 6 9 9 10 11 10 11 12 12 9 7 6 10 10 10 7 7 9 8 10 14 11 6 5 3 4 4 10 7 11 10 9 11 11 12 13 14 13 11 9 10 11 11 11 11 11 12 12 11 12 11 11 9 10 8 8 8 8 9 10 9 9 9 8 7 8 9 9 7 7 7 6 6 8 8 8 8 8 7
2 5 5 9 4 2 7 11 13 11 10 9 10 12 12 11 11 10 11 11 9 9 10 9 8 8 7 7 6 15 14 10 9 7 8 11 7 9 9 9 7 9 11 12 12 10 8 8 9 9 9 8 9 10 9 9 10 9 11 10 9 9 8 7 9 9 9 8 8 8 9 9 8 6 11 11 4 4 5 3 3 3 4 4 6 6 6
1 2 3 3 4 1 5 8 8 9 8 9 10 11 10 10 10 10 11 12 12 12 11 10 10 9 9 10 8 6 9 15 14 15 13 9 8 7 7 9 7 7 8 10 10 11 9 8 8 7 7 7 9 10 9 9 10 11 12 10 8 8 8 7 9 9 9 8 8 8 8 8 7 8 6 7 13 11 8 11 10 11 11 10 10 8 3
3 3 2 3 5 1 6 7 5 6 6 8 10 9 6 9 10 9 10 11 11 10 9 10 9 9 7 8 8 5 5 8 9 9 9 8 8 7 6 8 7 8 9 8 9 10 9 9 9 8 8 7 7 8 9 10 10 10 11 10 8 8 8 8 10 9 8 8 8 7 7 7 8 8 8 6 5 12 12 12 13 12 11 11 10 11 12
3 1 1 3 5 2 8 3 7 6 4 5 7 9 9 7 7 8 9 10 10 11 11 11 9 6 8 9 8 7 8 11 11 10 9 8 9 7 6 7 7 7 9 8 8 9 9 8 9 9 8 6 6 7 8 8 8 10 10 8 8 8 8 9 8 8 8 8 8 7 8 8 7 8 9 9 9 7 8 11 12 12 12 13 12 12 13
3 1 2 5 6 6 7 6 6 5 4 5 6 7 8 8 9 8 10 9 9 10 11 11 12 12 11 10 9 8 8 9 10 8 8 7 6 6 6 6 5 5 6 6 8 9 8 7 9 9 7 6 5 8 8 8 8 8 8 8 9 8 8 11 10 8 8 8 8 7 7 8 8 9 8 8 9 8 7 6 7 10 12 12 13 14 13
4 1 6 9 6 4 2 3 2 4 1 3 3 4 5 6 7 9 8 9 10 10 11 11 11 11 11 11 10 8 8 7 8 8 7 8 9 6 5 5 6 6 5 6 6 5 8 9 8 7 7 7 6 7 9 9 9 9 9 8 7 7 12 11 8 9 8 8 8 7 7 8 8 8 8 8 9 10 9 8 7 7 6 5 9 10 11
7 5 7 6 5 3 2 2 4 5 3 3 2 3 2 5 5 7 9 10 10 9 9 10 12 13 12 10 10 8 5 6 7 6 6 8 7 5 5 5 6 6 4 6 8 6 5 8 9 8 6 7 7 6 8 9 9 9 8 8 7 7 8 9 7 7 7 8 8 8 8 7 5 6 7 7 9 9 8 8 8 8 8 6 4 5 11
6 5 5 6 6 6 5 4 1 2 3 1 3 2 8 4 4 6 6 8 8 9 9 10 10 10 10 10 10 10 8 7 8 8 7 5 6 6 6 7 8 8 7 7 7 6 5 5 8 8 7 8 8 8 9 9 8 7 8 7 7 7 7 8 7 6 6 6 6 7 6 5 7 5 5 7 9 8 8 8 8 7 8 7 6 5 5
3 4 4 3 2 1 3 5 2 4 4 6 3 4 6 5 4 4 6 8 8 9 8 9 10 11 11 11 10 9 9 9 7 6 6 5 5 4 4 6 6 6 4 4 5 6 6 6 6 6 5 6 9 7 7 5 6 4 4 6 8 7 7 8 7 7 6 6 6 7 7 5 7 6 7 8 8 8 8 9 10 9 9 9 8 9 7
6 5 3 3 1 5 7 8 4 1 2 5 3 3 6 4 6 4 6 7 7 8 9 9 9 10 10 10 10 10 8 8 8 7 7 5 4 3 4 5 5 3 4 3 4 4 6 5 4 4 4 5 6 6 7 7 5 3 3 5 7 9 10 10 7 7 6 7 7 7 5 4 3 6 7 7 6 8 8 7 8 7 8 8 7 7 6
7 8 9 6 5 5 5 4 8 9 9 5 2 2 2 5 5 6 6 5 6 8 8 8 9 9 8 8 9 9 9 8 7 6 6 6 5 4 4 3 5 5 5 4 3 3 3 7 6 5 4 5 4 5 7 7 6 4 3 5 7 7 9 11 7 6 6 6 6 7 7 6 4 6 7 7 7 8 8 8 8 8 8 7 8 7 7
5 4 4 7 6 6 6 5 4 6 11 8 4 5 4 5 4 4 5 4 5 7 8 8 7 7 7 7 6 8 8 7 8 7 7 6 5 4 3 5 7 7 6 5 4 5 6 5 6 7 6 6 5 5 6 6 6 7 6 7 7 7 8 7 5 6 6 6 7 7 8 8 6 7 8 8 8 8 8 8 8 8 7 8 8 7 8
7 5 5 5 7 5 5 6 5 5 5 9 10 7 2 6 7 7 8 7 6 7 6 4 4 4 6 6 6 5 5 5 6 7 7 6 4 3 4 6 8 8 7 7 6 5 5 6 5 2 7 7 8 7 4 4 3 5 7 8 7 8 7 7 7 6 6 6 6 8 7 6 6 7 7 8 8 8 8 8 7 8 5 8 8 7 9
6 5 6 5 5 6 5 6 5 3 6 7 7 10 9 8 4 4 3 5 5 5 3 3 4 7 4 4 7 7 6 6 6 7 5 5 5 3 3 4 5 7 8 8 7 6 6 6 5 7 6 6 6 6 3 2 2 3 6 8 8 7 7 7 7 6 7 6 7 6 7 6 6 6 7 7 6 7 6 6 8 7 5 6 5 6 9
7 6 7 6 7 8 6 6 5 6 5 2 3 2 2 5 7 3 3 5 4 3 3 4 4 4 6 6 7 6 5 5 4 4 5 4 5 3 2 4 5 6 8 10 9 9 8 7 7 8 7 7 7 8 8 8 8 7 6 6 6 4 5 5 5 5 6 5 5 6 6 7 7 7 7 5 5 6 5 6 6 5 5 7 6 7 8
8 7 4 3 3 4 5 6 6 4 5 3 4 6 5 4 3 2 3 2 5 4 4 3 3 4 4 5 5 5 6 4 3 2 3 2 3 2 2 2 3 4 5 6 7 9 9 8 9 10 6 5 6 7 8 9 7 6 6 6 5 6 5 4 3 4 5 5 5 6 7 7 6 7 7 6 5 5 6 5 6 4 3 6 7 7 8
5 6 8 7 7 8 6 5 3 5 3 2 2 1 3 7 6 4 3 5 6 6 4 3 3 3 3 2 4 5 5 5 3 2 0 2 1 2 4 4 4 0 2 6 7 8 7 9 10 7 7 6 6 7 9 12 10 7 6 6 6 5 5 4 5 6 6 5 5 5 5 6 6 6 6 5 6 6 6 7 6 5 5 5 6 7 8
7 6 5 5 5 5 5 5 6 10 9 5 4 4 4 4 4 3 2 2 3 4 4 2 2 2 2 1 0 5 3 4 3 0 0 1 3 6 5 5 6 7 6 6 8 7 7 8 6 4 8 9 9 8 8 9 9 6 5 5 6 6 6 6 5 5 5 6 5 5 5 5 5 5 5 4 6 7 8 7 7 7 7 5 6 7 7
6 5 5 7 5 5 5 6 5 5 5 5 5 5 5 5 5 6 5 2 5 4 3 5 3 1 1 2 2 1 4 2 1 0 1 1 3 5 5 5 5 5 5 5 7 6 5 4 2 8 7 8 7 6 5 3 1 6 6 6 5 6 5 5 6 6 6 5 5 5 4 4 4 4 3 4 6 7 6 5 4 4 4 5 6 6 6
5 5 5 4 6 7 6 6 5 5 4 5 6 6 7 6 6 5 4 4 2 3 4 6 6 5 3 3 2 1 2 3 1 1 2 2 3 3 2 4 4 4 4 4 5 5 3 1 1 8 6 5 5 6 5 2 2 4 4 6 6 7 7 6 6 6 5 5 5 4 5 6 7 6 5 6 6 6 6 4 4 4 4 5 5 6 5
3 4 5 5 5 4 5 4 5 5 5 5 4 5 5 5 4 5 5 3 2 2 2 5 5 4 5 4 2 1 2 2 1 0 4 6 5 4 3 5 5 5 6 8 5 4 3 3 5 6 7 7 7 5 6 4 6 6 5 4 5 6 6 6 6 6 5 5 5 6 6 5 6 6 5 5 5 5 6 5 5 4 5 5 6 6 6
3 4 3 2 3 4 3 4 2 2 2 3 3 3 4 3 3 4 5 5 3 3 4 3 2 2 4 5 4 3 2 3 2 3 6 4 5 4 3 5 5 5 1 3 5 4 4 7 8 7 10 8 6 7 2 3 5 6 7 7 6 6 7 7 7 6 6 5 5 6 5 5 5 5 5 5 5 5 5 5 4 5 5 5 5 5 5
3 2 4 3 3 3 4 4 3 2 1 2 3 3 2 2 2 2 3 3 4 3 4 4 4 4 5 3 2 1 1 1 2 2 3 2 4 7 6 4 5 4 1 1 3 3 6 8 6 9 12 11 9 7 5 4 5 4 4 4 5 4 5 5 6 6 6 6 5 5 5 6 6 6 5 5 5 5 5 5 5 5 5 5 4 4 5
1 2 2 2 2 1 2 3 3 3 1 2 2 3 1 2 2 3 3 2 3 4 4 4 4 3 2 3 2 2 2 2 2 1 1 1 3 5 5 7 5 4 2 2 4 5 7 6 9 11 9 10 10 7 4 6 5 6 5 5 5 5 5 5 5 5 6 7 7 7 7 7 6 7 6 6 6 6 6 6 6 6 5 5 5 5 5
2 1 3 2 4 1 3 2 4 3 2 2 1 1 3 1 3 3 3 2 1 1 2 2 0 1 0 2 3 2 2 2 2 5 4 4 2 4 4 4 4 5 4 3 4 7 6 10 11 10 12 11 8 4 2 7 7 7 7 7 7 7 7 6 7 6 6 5 5 5 5 5 5 5 6 6 6 5 6 6 6 5 5 5 5 6 5
3 3 2 3 4 5 2 2 2 2 3 3 1 0 2 3 1 2 3 3 2 3 2 2 2 2 1 2 4 3 2 2 1 3 5 5 7 6 7 9 7 7 1 4 5 6 6 7 8 9 9 5 3 3 3 5 6 6 5 5 5 5 5 5 5 6 6 6 6 6 6 6 6 6 6 6 6 5 5 5 5 5 5 5 5 5 5
3 2 1 2 2 2 1 3 4 4 4 3 2 2 2 3 2 4 4 3 2 3 3 2 1 1 1 2 2 2 0 0 3 4 5 5 5 5 4 5 6 9 11 9 9 7 10 12 9 7 5 1 4 5 3 3 2 5 5 5 5 6 6 7 6 7 6 6 7 6 6 6 6 6 6 5 6 6 6 5 5 6 7 5 4 4 4
3 3 2 1 3 2 4 3 3 3 2 1 3 2 1 2 2 4 3 3 4 3 3 2 2 1 1 1 1 1 0 2 2 4 6 5 6 7 7 7 5 6 7 6 6 4 4 8 8 6 2 2 4 5 3 4 4 5 6 6 6 6 6 6 6 6 6 6 6 6 6 6 6 7 7 6 5 6 7 5 3 4 5 5 5 6 7
2 1 3 3 2 3 4 2 2 1 3 4 3 1 2 3 1 2 1 2 2 3 3 3 2 1 1 2 2 1 2 4 2 5 5 7 8 8 7 6 5 6 6 6 6 5 5 4 4 2 3 4 6 3 3 2 3 3 3 3 4 3 3 6 7 8 6 6 6 5 5 5 6 7 6 5 5 5 4 5 7 9 13 10 9 8 7
2 3 2 2 1 3 2 2 1 2 3 1 3 2 2 3 3 2 2 2 3 2 3 3 2 2 2 1 0 1 1 1 2 7 7 6 6 6 6 8 7 6 6 6 5 5 4 4 4 4 4 5 1 4 2 3 3 2 2 2 4 5 5 5 3 5 6 5 4 4 4 4 6 7 5 6 8 7 6 7 7 6 6 5 5 5 5
2 3 1 2 3 2 2 2 2 3 3 1 1 2 4 1 2 3 2 1 3 3 4 4 3 3 1 2 2 2 1 1 2 5 6 7 7 6 8 9 7 7 6 5 6 5 5 4 4 2 4 1 5 3 3 2 3 3 3 6 6 5 4 2 3 4 3 4 4 4 3 4 5 5 5 6 7 7 6 6 7 6 6 5 5 5 6
Wind_Direction
272 267 210 203 210 209 199 203 204 207 202 198 181 224 243 250 10 118 126 136 144 172 157 177 193 224 166 159 162 174 148 126 127 137 148 155 152 145 150 160 165 173 167 168 166 166 161 158 161 165 170 175 167 156 154 150 134 140 143 143 144 148 148 153 158 157 156 151 143 146 144 142 142 147 149 154 152 146 149 151 157 164 157 155 164 163 150
268 277 219 197 205 199 194 205 199 204 197 196 197 217 248 151 92 84 94 80 56 50 31 4 353 293 162 146 133 122 129 135 133 139 147 156 158 148 155 165 168 170 167 168 168 164 162 161 162 164 168 169 162 156 152 139 136 141 147 154 151 150 151 156 154 154 150 144 148 145 144 142 144 144 150 156 152 151 155 154 159 159 157 160 170 154 158
243 266 283 217 199 206 206 197 197 205 200 197 189 147 78 115 103 109 107 112 89 44 23 2 334 327 195 175 144 121 124 133 140 145 153 159 165 150 156 161 167 169 166 167 168 163 164 165 164 161 161 158 154 147 141 142 142 149 156 157 155 152 152 154 151 147 150 156 148 148 143 139 139 147 154 152 149 153 150 154 160 153 156 168 164 159 159
240 241 258 270 216 198 201 206 202 199 208 227 191 128 278 117 137 136 123 120 106 63 27 6 320 315 282 170 159 150 149 155 160 162 159 163 167 157 164 166 165 170 171 169 166 163 161 159 157 158 160 158 156 150 145 151 153 150 150 153 153 151 152 156 156 152 149 146 141 142 143 142 147 150 148 150 151 152 148 155 155 149 159 168 157 159 154
233 196 227 256 211 189 204 207 195 195 201 232 208 148 156 122 138 180 97 78 82 117 150 199 291 194 301 186 162 168 171 172 170 169 167 168 171 164 164 166 167 173 174 167 160 157 154 157 156 157 157 158 159 151 150 150 147 153 149 148 148 151 155 156 157 155 151 148 143 145 146 147 152 152 152 154 152 148 152 153 144 154 166 159 160 158 149
209 222 199 223 206 196 196 183 201 201 198 207 199 216 160 155 198 106 114 114 91 124 127 122 227 30 225 209 163 165 175 166 172 172 169 172 172 160 153 163 168 168 164 157 153 150 151 155 153 156 156 152 148 144 143 146 152 153 149 150 154 154 155 155 152 155 155 153 149 148 147 149 150 155 155 155 147 148 147 145 150 159 164 158 161 157 155
230 225 143 174 191 195 183 178 202 200 194 195 220 222 192 183 178 137 137 151 137 87 71 85 119 202 253 226 184 182 184 163 171 168 171 169 157 147 156 161 165 160 151 143 143 146 152 158 154 150 148 146 143 146 147 153 157 151 154 159 157 156 159 157 156 156 157 157 154 150 151 151 154 157 160 153 154 157 154 155 159 163 165 164 164 160 157
312 230 211 195 201 183 191 174 190 193 204 196 216 212 202 197 166 241 207 139 124 132 114 93 90 98 18 271 178 160 163 153 174 162 157 145 145 154 158 154 148 147 149 147 147 150 151 150 148 149 148 145 143 144 149 153 153 152 157 155 153 158 161 157 160 160 160 157 156 154 153 155 159 163 166 157 161 153 152 154 163 155 159 162 163 164 160
232 202 206 161 97 169 197 187 185 187 193 189 206 196 203 198 214 178 221 214 113 116 113 105 121 126 153 191 126 145 183 155 159 146 142 151 149 141 135 131 127 124 127 137 142 143 144 144 141 143 142 138 136 139 147 147 146 151 155 156 158 162 161 160 161 167 161 153 155 152 154 157 162 162 162 155 160 150 153 163 163 157 156 162 166 167 162
242 201 170 133 203 175 180 170 170 176 193 190 184 236 239 218 212 213 204 88 92 101 102 97 78 165 157 176 163 343 186 134 129 154 147 124 130 124 126 126 124 127 134 135 139 142 147 145 140 135 134 132 132 136 138 143 143 146 149 158 160 157 158 157 159 165 162 160 156 155 157 162 162 159 157 162 162 147 160 163 161 164 150 163 172 173 169
243 233 190 174 169 168 162 175 170 186 178 176 153 196 229 204 218 177 103 187 136 108 102 101 59 138 177 175 150 226 262 146 169 134 121 126 126 124 127 131 138 143 136 137 144 146 147 145 140 137 133 132 134 139 143 148 151 142 143 148 155 156 159 158 153 163 168 162 158 157 162 165 162 160 160 162 154 144 161 160 152 152 160 164 175 170 156
267 213 182 188 83 142 174 211 175 170 180 180 179 187 220 200 193 112 173 188 230 90 114 115 150 193 172 156 169 213 174 154 128 128 125 128 133 133 131 134 142 134 131 139 147 150 153 139 140 145 138 135 138 144 150 150 153 155 154 156 156 146 135 129 157 168 159 158 159 162 162 158 158 157 154 148 151 156 162 159 154 162 168 161 168 114 88
255 235 76 339 314 289 321 256 181 140 112 198 196 194 138 0 50 139 157 212 130 110 134 154 168 119 328 122 137 153 143 138 133 128 128 133 142 140 133 137 133 130 138 146 152 155 142 137 143 152 154 143 145 152 152 158 157 158 159 161 163 168 160 153 158 158 155 155 155 158 158 155 151 144 141 142 144 153 158 160 145 139 125 105 100 115 130
265 163 125 104 264 334 324 308 257 126 144 190 190 73 340 356 94 183 212 128 104 139 139 134 142 102 111 115 119 147 148 138 137 156 140 134 134 127 126 128 137 142 147 149 155 153 142 144 145 153 156 151 155 155 158 162 166 160 158 160 155 158 156 157 152 149 149 146 142 133 128 134 137 142 141 126 120 98 96 112 114 110 108 117 124 121 122
159 231 113 165 191 232 234 273 191 158 214 112 51 104 8 338 7 135 97 89 89 94 87 80 121 140 130 132 133 135 138 147 141 155 152 141 139 130 132 137 140 147 151 157 153 139 147 151 155 160 157 156 160 156 168 162 153 150 146 160 160 157 153 154 148 136 129 133 142 143 145 139 131 118 112 114 121 122 122 120 122 126 127 128 132 130 137
274 159 158 151 39 143 256 269 161 72 47 97 129 103 124 66 316 136 119 100 78 54 66 96 129 130 135 135 134 137 152 150 143 138 151 136 133 136 143 144 149 151 154 155 150 149 153 150 158 160 154 157 160 163 170 151 132 115 117 136 145 151 152 140 130 138 142 138 140 145 139 131 121 118 123 122 126 131 138 136 137 139 147 149 159 165 171
327 44 52 37 314 334 67 1 83 84 93 115 158 86 47 25 71 62 62 77 57 57 62 98 107 93 85 81 104 115 83 56 43 70 146 131 140 150 149 147 151 154 153 147 143 150 156 162 163 164 152 156 152 165 158 138 127 130 143 146 140 138 138 138 134 132 134 143 149 145 140 138 129 130 132 132 133 145 152 149 149 154 162 170 180 183 180
34 24 17 1 261 65 85 62 82 100 97 66 76 88 89 60 62 68 63 70 93 101 85 59 103 91 77 70 45 14 26 55 94 16 317 143 143 138 138 142 144 146 144 138 145 148 155 156 151 151 149 153 159 165 149 154 153 146 159 152 144 144 142 144 146 147 147 146 144 138 134 135 135 140 144 148 150 156 163 161 166 169 174 181 186 185 185
317 30 351 354 338 44 54 78 79 69 77 81 81 80 72 85 93 93 36 289 118 118 124 118 101 106 112 106 102 86 11 44 72 82 302 200 142 135 139 143 144 143 143 144 148 149 151 155 153 162 155 150 162 148 144 153 160 156 161 153 151 149 147 147 148 149 145 146 142 137 132 141 149 161 166 173 170 169 174 178 179 184 183 182 186 185 183
33 40 355 330 272 42 25 359 76 91 98 106 78 72 88 89 99 117 153 142 95 98 99 84 84 98 113 126 123 121 124 119 123 131 295 287 140 137 139 140 142 139 143 143 142 148 153 158 159 157 151 157 174 150 146 151 156 154 146 153 152 148 146 149 148 146 142 140 141 146 148 147 153 161 166 174 176 176 179 182 183 183 186 184 189 188 183
330 55 48 332 69 56 43 14 33 47 52 62 76 99 99 87 86 93 106 105 113 103 101 110 109 114 131 137 135 131 129 143 159 133 212 267 153 136 142 132 141 144 140 145 149 152 151 151 152 157 159 163 178 151 150 146 151 148 143 153 143 134 134 142 144 141 141 151 152 150 152 154 160 165 176 183 173 177 185 185 188 182 182 181 186 193 184
28 11 7 358 43 27 18 30 24 24 38 52 63 49 46 67 85 78 68 50 58 108 126 119 110 100 105 95 104 135 148 156 156 166 198 242 181 131 127 125 136 134 142 143 144 142 142 142 152 156 150 153 141 137 144 140 138 148 139 153 147 145 143 142 146 144 149 154 155 155 156 158 143 76 37 53 46 165 173 154 135 125 146 175 181 187 188
37 308 358 58 10 14 50 35 7 28 24 66 62 66 57 44 56 71 74 71 60 55 53 63 73 71 76 82 83 63 119 145 168 171 173 159 126 113 120 122 130 137 132 141 146 143 145 141 140 132 140 146 143 148 141 145 146 146 157 162 154 152 152 154 153 151 155 158 162 161 159 159 137 133 120 60 42 37 102 106 99 87 84 78 78 86 138
286 318 292 2 85 2 321 78 50 35 13 38 62 69 78 79 69 52 71 71 74 71 67 62 53 59 59 82 80 81 71 102 124 122 117 115 113 116 120 117 127 126 130 129 135 137 140 143 139 138 143 158 146 150 148 152 152 152 165 164 159 157 161 152 152 155 159 154 152 158 160 162 144 151 138 134 67 37 51 92 91 91 89 83 78 83 84
224 215 308 69 92 64 278 34 66 61 63 46 37 42 62 80 72 62 71 83 82 81 78 78 75 61 65 62 64 56 62 45 35 53 58 88 101 104 110 122 133 130 126 137 133 140 141 149 141 141 146 147 159 146 127 111 120 156 166 156 157 159 155 145 153 155 159 161 162 164 163 163 155 153 158 152 124 107 49 53 76 87 86 80 77 79 82
166 93 93 73 47 29 5 3 54 56 51 36 74 69 56 71 86 81 79 79 79 82 84 80 71 63 60 64 57 54 48 42 20 24 77 82 96 108 118 131 123 103 107 119 139 141 140 140 133 137 139 148 144 127 133 148 147 156 153 158 158 155 150 153 159 162 166 167 166 169 169 174 169 170 164 145 154 139 130 122 72 54 54 74 90 85 77
113 196 104 60 22 1 355 130 282 12 204 47 23 127 118 88 92 98 95 90 92 97 101 100 94 89 85 75 73 71 79 57 48 44 67 65 61 68 93 119 126 114 101 103 79 76 119 127 126 134 140 140 143 137 142 154 161 164 164 166 160 144 150 156 160 162 166 167 168 170 175 182 182 172 159 169 151 149 154 149 139 122 121 63 37 79 102
103 114 112 143 170 248 257 218 223 276 12 119 241 66 78 88 67 87 99 101 98 91 83 98 117 123 119 116 110 105 96 89 91 87 72 60 58 55 79 78 79 61 64 97 92 73 92 128 132 134 139 139 145 138 146 155 162 163 161 168 151 141 152 158 158 166 169 172 177 176 177 174 176 166 169 149 143 157 150 142 137 139 119 94 96 87 107
112 124 124 128 153 183 228 254 124 324 264 45 336 284 63 46 90 68 63 80 84 84 88 88 87 84 83 91 99 101 97 88 84 77 70 58 72 66 64 62 70 63 51 58 91 95 68 95 127 132 138 153 152 162 155 164 166 160 158 170 133 143 153 164 161 164 167 167 167 158 161 155 162 162 148 136 150 151 150 149 147 153 129 127 122 85 50
44 104 109 84 90 285 228 193 193 197 212 248 214 164 155 131 56 57 67 69 65 74 80 85 80 77 80 82 75 82 92 100 105 96 90 87 74 74 86 81 77 69 67 98 106 97 96 79 84 107 138 157 143 145 146 121 127 122 136 116 132 146 156 162 158 158 158 153 157 150 172 176 169 157 142 149 153 151 152 159 159 162 148 150 146 144 147
38 336 31 95 333 5 9 353 230 293 294 273 256 95 106 116 114 86 57 46 61 66 61 62 64 70 74 78 85 83 78 74 83 100 106 109 105 93 93 119 124 132 129 98 59 102 119 105 90 88 70 62 113 128 119 123 122 113 135 125 135 127 126 128 142 153 150 154 152 172 170 163 128 131 142 134 125 136 146 137 140 135 138 149 156 165 160
0 30 23 351 6 1 35 56 7 352 306 306 326 70 351 106 113 83 85 83 55 61 61 58 63 68 66 68 76 83 89 88 87 94 113 118 127 150 155 151 122 117 117 114 84 40 100 132 118 116 98 100 123 115 120 127 133 137 113 93 121 132 139 142 149 142 151 146 140 111 87 86 114 124 109 123 130 135 141 140 141 147 152 159 170 184 158
16 9 61 21 357 17 7 16 19 21 338 312 358 325 10 49 70 98 99 87 75 66 62 54 50 61 59 56 68 74 83 91 95 92 85 92 98 111 114 93 96 103 110 109 86 62 37 84 123 130 132 125 95 105 130 140 148 148 142 127 133 138 149 155 137 136 130 125 126 128 140 145 140 140 140 137 136 137 138 144 152 159 175 171 178 182 166
55 57 53 39 29 22 21 16 31 33 32 340 320 327 346 63 61 48 39 42 65 64 49 61 82 75 76 78 74 87 92 102 108 100 98 87 74 60 77 104 116 115 115 120 111 89 78 57 26 124 138 131 129 125 125 133 145 143 131 126 132 144 153 153 150 141 137 126 127 136 145 141 135 138 137 145 152 160 156 166 165 177 191 152 169 159 161
44 61 65 53 44 55 26 20 20 40 41 14 352 338 352 36 358 45 26 52 61 75 80 61 51 63 53 46 67 53 52 52 78 99 103 101 94 58 56 91 109 122 128 120 111 109 91 68 62 32 47 101 89 70 65 98 136 142 135 128 137 151 151 149 153 146 147 142 149 153 152 154 142 142 148 147 148 153 157 154 163 184 149 143 182 149 160
40 42 31 31 29 23 26 39 47 14 34 56 63 82 6 333 325 338 44 77 31 54 54 23 40 59 63 59 66 68 61 65 71 78 95 109 109 124 159 132 123 126 121 121 120 119 112 98 78 75 65 50 50 55 68 70 59 56 52 86 106 107 118 123 121 118 136 137 128 132 152 138 126 130 143 147 142 155 136 142 161 171 166 157 140 126 146
20 4 29 34 19 24 10 10 22 43 89 52 348 329 313 226 143 149 301 336 80 24 23 36 13 38 57 73 84 77 74 62 55 51 75 97 124 161 121 167 139 126 137 118 105 110 114 120 130 122 114 93 82 70 63 71 69 68 84 93 101 108 116 111 75 81 87 92 114 117 116 122 134 139 147 151 159 151 161 155 143 153 125 145 137 137 144
36 11 12 8 7 353 354 5 352 319 337 35 17 63 32 14 8 331 12 27 39 39 45 41 58 69 71 65 82 87 78 66 63 57 360 99 18 18 54 48 49 95 102 101 118 112 116 143 156 151 132 124 115 96 96 92 85 83 84 91 98 99 97 101 106 107 105 110 111 117 127 131 139 153 163 178 169 152 125 126 151 171 168 172 152 149 153
33 19 3 1 342 335 344 338 12 11 356 1 7 6 5 353 328 330 71 58 60 25 12 51 101 51 48 317 327 99 96 89 62 42 199 263 72 73 73 64 60 51 58 65 88 100 129 150 178 105 83 97 104 108 113 114 109 108 98 100 105 111 111 113 107 104 99 116 127 143 146 144 156 165 176 164 136 122 131 160 177 197 188 167 131 145 152
37 19 357 347 355 17 347 344 357 352 346 349 339 343 20 356 344 338 340 33 69 43 348 330 326 265 271 256 277 191 111 75 70 140 142 163 137 105 102 83 71 84 96 97 103 121 142 203 156 103 112 111 114 117 119 88 143 128 132 130 125 122 122 122 125 122 128 126 134 147 149 153 125 101 83 95 123 131 136 151 156 146 131 121 135 142 147
10 4 353 348 11 13 8 350 344 332 336 346 6 3 4 358 349 330 332 332 4 31 5 18 10 2 321 292 268 300 97 101 205 232 145 185 198 170 163 111 108 73 41 70 96 115 99 328 180 117 110 116 103 113 131 115 140 121 128 131 139 136 139 140 132 125 122 120 116 105 100 98 100 102 109 118 116 118 127 132 139 144 136 144 137 136 138
37 7 359 4 6 2 356 354 348 343 6 10 3 354 358 357 334 323 327 359 10 9 309 82 59 6 334 319 301 292 130 165 178 195 81 59 57 29 60 102 95 93 102 90 100 121 163 152 94 109 107 105 114 139 145 164 128 131 128 121 123 129 126 122 124 123 122 122 114 110 111 116 117 122 119 118 123 128 136 149 159 156 152 145 148 149 145
41 349 11 25 20 357 338 333 17 352 335 3 27 21 359 348 343 340 341 341 348 16 7 348 41 244 239 246 247 218 184 185 203 157 108 93 63 32 112 117 108 120 257 151 139 155 139 79 68 64 98 110 132 147 155 244 138 142 142 145 143 143 142 146 138 141 144 148 145 141 144 139 141 143 144 141 143 145 147 147 150 146 143 141 138 141 148
96 11 345 17 36 3 329 319 328 326 354 14 358 4 358 17 4 8 28 22 28 27 17 12 27 9 13 31 45 231 116 113 164 162 156 164 132 64 35 99 123 120 332 177 200 101 87 92 96 104 107 116 133 181 209 155 131 121 89 96 113 119 109 107 118 138 149 147 137 136 140 141 146 156 158 153 146 149 151 150 152 155 151 151 152 159 158
151 40 320 360 320 270 301 333 346 17 57 272 351 10 358 67 32 25 16 38 51 41 39 19 343 346 55 65 32 65 112 100 89 131 198 243 201 114 92 97 108 149 124 30 325 95 106 106 122 125 131 145 176 207 162 131 138 135 137 133 125 127 130 135 144 147 151 159 160 160 163 167 163 161 160 153 153 156 162 168 167 166 163 164 163 166 169
60 319 325 313 278 253 76 294 299 324 332 322 142 254 304 12 103 110 93 46 60 59 71 98 266 318 4 121 129 109 85 89 110 77 63 32 4 102 69 62 109 87 58 29 87 94 98 124 136 142 160 182 181 188 200 140 145 151 156 156 162 165 167 160 159 157 151 135 134 139 144 144 144 156 152 161 166 165 168 170 164 165 169 174 174 180 183
236 207 222 286 69 105 148 276 314 289 283 266 231 80 312 291 219 136 117 101 82 88 81 83 133 175 198 132 145 148 147 133 193 118 101 99 81 71 88 76 62 53 50 133 110 117 129 137 150 164 178 176 210 260 234 143 162 161 160 148 144 127 131 140 147 149 152 154 154 157 158 162 163 157 157 159 167 170 154 170 175 176 170 183 184 187 190
4 53 181 262 111 116 272 255 275 279 273 273 297 164 206 309 332 77 101 117 140 125 112 114 126 173 190 92 18 324 52 164 185 153 122 105 123 137 112 87 93 98 85 77 83 109 140 152 142 123 118 206 225 258 261 109 131 121 133 143 160 157 161 160 164 162 156 141 156 162 164 172 161 152 159 172 167 162 162 182 200 192 176 170 150 147 106
59 59 317 129 138 205 200 215 254 290 305 359 301 276 143 249 215 171 176 133 136 134 123 111 124 103 99 127 268 287 39 336 295 126 120 132 125 107 99 103 111 111 104 105 123 125 100 101 108 129 137 284 259 254 174 149 155 152 163 163 164 164 162 154 146 138 135 154 161 158 171 167 153 155 167 173 164 155 171 197 175 145 133 136 113 91 92
67 168 213 224 207 235 251 266 247 169 261 266 256 197 244 256 301 17 273 190 150 167 144 140 134 145 132 192 209 285 1 327 303 112 125 118 110 120 137 130 110 91 102 125 123 116 86 95 139 171 233 238 251 197 121 140 143 165 150 147 144 149 114 99 114 127 150 168 164 175 161 155 152 154 165 161 124 107 100 85 76 75 80 83 88 91 90
158 190 182 144 208 271 302 295 307 274 284 347 350 356 255 214 142 181 251 124 168 162 134 139 151 174 185 186 156 302 286 301 54 105 111 118 124 134 130 111 106 116 119 119 129 136 149 178 190 198 216 248 172 111 147 153 138 129 121 120 106 110 113 121 145 156 168 171 162 168 163 153 133 151 147 114 109 108 108 99 94 97 101 105 104 108 109
319 312 15 150 209 223 216 198 232 268 283 298 302 270 290 337 139 217 203 139 238 171 168 151 158 161 191 188 227 190 181 90 99 105 102 118 135 133 102 111 129 126 146 145 146 152 168 165 159 152 324 245 133 132 58 51 142 140 120 85 68 63 49 69 159 162 162 170 167 158 138 108 97 102 103 113 118 123 111 98 88 82 80 83 81 84 86